M I D A S
Marine Information and Data Acquisition System
Tripno 1287 of the Zeeleeuw from 2007-06-15 06:48:23 to 2007-06-15 14:46:10
Back to CruiseResearch ActivitiesStationsMapUnderway DataData graphs

EquipmentUnitsComment
TimeDGPSUTC
LatitudeDGPSDM.mWGS84
LongitudeDGPSDM.mWGS84
TemperatureSBE03/SBE38deg celciusITS90
ConductivitySBE21S/mITS90
SalinitySBE21 Practical Salinity Units
ChlorophylAChelsea fluorimeterg/lCalibrated in Aceton
Missing or incorrect values are displayed as -999
Sea surface data collected by the RV Zeeleeuw from 2007-06-15 06:51:28 to 2007-06-15 14:56:51
Time Latitude Longitude Temperature Conductivity Salinity ChlorophylA
2007-06-15 06:52:33 51°13.612 2°56.035 -999 -999 -999 -999
2007-06-15 06:53:33 51°13.653 2°55.92 -999 -999 -999 -999
2007-06-15 06:54:33 51°13.685 2°55.822 -999 -999 -999 -999
2007-06-15 06:55:33 51°13.695 2°55.759 -999 -999 -999 -999
2007-06-15 06:56:33 51°13.696 2°55.718 -999 -999 -999 -999
2007-06-15 06:57:33 51°13.703 2°55.717 -999 -999 -999 -999
2007-06-15 06:58:33 51°13.756 2°55.697 -999 -999 -999 -999
2007-06-15 06:59:33 51°13.863 2°55.613 -999 -999 -999 -999
2007-06-15 07:00:33 51°14.004 2°55.509 -999 -999 -999 -999
2007-06-15 07:01:33 51°14.152 2°55.397 -999 -999 -999 -999
2007-06-15 07:02:33 51°14.282 2°55.232 -999 -999 -999 -999
2007-06-15 07:03:33 51°14.406 2°54.998 -999 -999 -999 -999
2007-06-15 07:04:33 51°14.565 2°54.777 -999 -999 -999 -999
2007-06-15 07:05:33 51°14.73 2°54.56 -999 -999 -999 -999
2007-06-15 07:06:33 51°14.91 2°54.38 -999 -999 -999 -999
2007-06-15 07:07:33 51°15.077 2°54.188 -999 -999 -999 -999
2007-06-15 07:08:33 51°15.261 2°54.037 -999 -999 -999 -999
2007-06-15 07:09:33 51°15.445 2°53.868 -999 -999 -999 -999
2007-06-15 07:10:33 51°15.629 2°53.699 -999 -999 -999 -999
2007-06-15 07:11:33 51°15.812 2°53.533 -999 -999 -999 -999
2007-06-15 07:12:33 51°15.993 2°53.367 -999 -999 -999 -999
2007-06-15 07:13:33 51°16.173 2°53.204 -999 -999 -999 -999
2007-06-15 07:14:33 51°16.359 2°53.059 -999 -999 -999 -999
2007-06-15 07:15:33 51°16.549 2°52.922 -999 -999 -999 -999
2007-06-15 07:16:33 51°16.738 2°52.797 -999 -999 -999 -999
2007-06-15 07:17:33 51°16.926 2°52.69 -999 -999 -999 -999
2007-06-15 07:18:33 51°17.116 2°52.583 -999 -999 -999 -999
2007-06-15 07:19:33 51°17.311 2°52.535 -999 -999 -999 -999
2007-06-15 07:20:33 51°17.508 2°52.508 -999 -999 -999 -999
2007-06-15 07:21:33 51°17.705 2°52.479 -999 -999 -999 -999
2007-06-15 07:22:33 51°17.901 2°52.451 -999 -999 -999 -999
2007-06-15 07:23:33 51°18.099 2°52.443 -999 -999 -999 -999
2007-06-15 07:24:33 51°18.26 2°52.595 -999 -999 -999 -999
2007-06-15 07:25:33 51°18.405 2°52.804 -999 -999 -999 -999
2007-06-15 07:26:33 51°18.558 2°52.992 -999 -999 -999 -999
2007-06-15 07:27:33 51°18.723 2°53.152 -999 -999 -999 -999
2007-06-15 07:28:33 51°18.884 2°53.322 -999 -999 -999 -999
2007-06-15 07:29:33 51°19.049 2°53.484 -999 -999 -999 -999
2007-06-15 07:30:33 51°19.217 2°53.638 -999 -999 -999 -999
2007-06-15 07:31:33 51°19.39 2°53.777 -999 -999 -999 -999
2007-06-15 07:32:33 51°19.563 2°53.918 -999 -999 -999 -999
2007-06-15 07:33:33 51°19.734 2°54.057 -999 -999 -999 -999
2007-06-15 07:34:33 51°19.908 2°54.196 -999 -999 -999 -999
2007-06-15 07:35:33 51°20.079 2°54.337 -999 -999 -999 -999
2007-06-15 07:36:33 51°20.248 2°54.478 -999 -999 -999 -999
2007-06-15 07:37:33 51°20.371 2°54.58 -999 -999 -999 -999
2007-06-15 07:38:33 51°20.446 2°54.623 -999 -999 -999 -999
2007-06-15 07:39:33 51°20.483 2°54.615 -999 -999 -999 -999
2007-06-15 07:40:33 51°20.5 2°54.593 -999 -999 -999 -999
2007-06-15 07:41:33 51°20.507 2°54.57 -999 -999 -999 -999
2007-06-15 07:42:33 51°20.515 2°54.543 -999 -999 -999 -999
2007-06-15 07:43:33 51°20.557 2°54.552 -999 -999 -999 -999
2007-06-15 07:44:33 51°20.564 2°54.658 -999 -999 -999 -999
2007-06-15 07:45:33 51°20.553 2°54.768 -999 -999 -999 -999
2007-06-15 07:46:33 51°20.53 2°54.846 -999 -999 -999 -999
2007-06-15 07:47:33 51°20.5 2°54.896 -999 -999 -999 -999
2007-06-15 07:48:33 51°20.476 2°54.949 -999 -999 -999 -999
2007-06-15 07:49:33 51°20.497 2°55.002 -999 -999 -999 -999
2007-06-15 07:50:33 51°20.551 2°55.041 -999 -999 -999 -999
2007-06-15 07:51:33 51°20.592 2°55.106 -999 -999 -999 -999
2007-06-15 07:52:33 51°20.628 2°55.172 -999 -999 -999 -999
2007-06-15 07:53:33 51°20.668 2°55.231 -999 -999 -999 -999
2007-06-15 07:54:33 51°20.699 2°55.304 -999 -999 -999 -999
2007-06-15 07:55:33 51°20.728 2°55.382 -999 -999 -999 -999
2007-06-15 07:56:33 51°20.763 2°55.452 -999 -999 -999 -999
2007-06-15 07:57:33 51°20.798 2°55.52 -999 -999 -999 -999
2007-06-15 07:58:33 51°20.818 2°55.606 -999 -999 -999 -999
2007-06-15 07:59:33 51°20.835 2°55.692 -999 -999 -999 -999
2007-06-15 08:00:33 51°20.864 2°55.762 -999 -999 -999 -999
2007-06-15 08:01:33 51°20.895 2°55.826 -999 -999 -999 -999
2007-06-15 08:02:33 51°20.921 2°55.897 -999 -999 -999 -999
2007-06-15 08:03:33 51°20.947 2°55.969 -999 -999 -999 -999
2007-06-15 08:04:33 51°20.974 2°56.042 -999 -999 -999 -999
2007-06-15 08:05:33 51°20.999 2°56.117 -999 -999 -999 -999
2007-06-15 08:06:33 51°21.023 2°56.193 -999 -999 -999 -999
2007-06-15 08:07:33 51°21.051 2°56.262 -999 -999 -999 -999
2007-06-15 08:08:33 51°21.081 2°56.332 -999 -999 -999 -999
2007-06-15 08:09:33 51°21.105 2°56.407 -999 -999 -999 -999
2007-06-15 08:10:33 51°21.132 2°56.478 -999 -999 -999 -999
2007-06-15 08:11:33 51°21.162 2°56.544 -999 -999 -999 -999
2007-06-15 08:12:33 51°21.196 2°56.604 -999 -999 -999 -999
2007-06-15 08:13:33 51°21.225 2°56.669 -999 -999 -999 -999
2007-06-15 08:14:33 51°21.238 2°56.749 -999 -999 -999 -999
2007-06-15 08:15:33 51°21.249 2°56.83 -999 -999 -999 -999
2007-06-15 08:16:33 51°21.232 2°56.911 -999 -999 -999 -999
2007-06-15 08:17:33 51°21.192 2°56.955 -999 -999 -999 -999
2007-06-15 08:18:33 51°21.159 2°56.975 -999 -999 -999 -999
2007-06-15 08:19:33 51°21.132 2°56.982 -999 -999 -999 -999
2007-06-15 08:20:33 51°21.11 2°56.985 -999 -999 -999 -999
2007-06-15 08:21:33 51°21.068 2°56.994 -999 -999 -999 -999
2007-06-15 08:22:33 51°21.004 2°57.006 -999 -999 -999 -999
2007-06-15 08:23:33 51°20.934 2°57.012 -999 -999 -999 -999
2007-06-15 08:24:33 51°20.871 2°57.012 -999 -999 -999 -999
2007-06-15 08:25:33 51°20.822 2°57.005 -999 -999 -999 -999
2007-06-15 08:26:33 51°20.779 2°56.99 -999 -999 -999 -999
2007-06-15 08:27:33 51°20.744 2°56.975 -999 -999 -999 -999
2007-06-15 08:28:33 51°20.702 2°56.941 -999 -999 -999 -999
2007-06-15 08:29:33 51°20.657 2°56.884 -999 -999 -999 -999
2007-06-15 08:30:33 51°20.619 2°56.819 -999 -999 -999 -999
2007-06-15 08:31:33 51°20.58 2°56.754 -999 -999 -999 -999
2007-06-15 08:32:33 51°20.539 2°56.691 -999 -999 -999 -999
2007-06-15 08:33:33 51°20.503 2°56.625 -999 -999 -999 -999
2007-06-15 08:34:33 51°20.473 2°56.551 -999 -999 -999 -999
2007-06-15 08:35:33 51°20.443 2°56.473 -999 -999 -999 -999
2007-06-15 08:36:33 51°20.409 2°56.399 -999 -999 -999 -999
2007-06-15 08:37:33 51°20.372 2°56.331 -999 -999 -999 -999
2007-06-15 08:38:33 51°20.333 2°56.273 -999 -999 -999 -999
2007-06-15 08:39:33 51°20.293 2°56.224 -999 -999 -999 -999
2007-06-15 08:40:33 51°20.255 2°56.181 -999 -999 -999 -999
2007-06-15 08:41:33 51°20.224 2°56.133 -999 -999 -999 -999
2007-06-15 08:42:33 51°20.199 2°56.076 -999 -999 -999 -999
2007-06-15 08:43:33 51°20.181 2°56.015 -999 -999 -999 -999
2007-06-15 08:44:33 51°20.165 2°55.944 -999 -999 -999 -999
2007-06-15 08:45:33 51°20.147 2°55.87 -999 -999 -999 -999
2007-06-15 08:46:33 51°20.127 2°55.796 -999 -999 -999 -999
2007-06-15 08:47:33 51°20.106 2°55.722 -999 -999 -999 -999
2007-06-15 08:48:33 51°20.085 2°55.651 -999 -999 -999 -999
2007-06-15 08:49:33 51°20.062 2°55.579 -999 -999 -999 -999
2007-06-15 08:50:33 51°20.039 2°55.508 -999 -999 -999 -999
2007-06-15 08:51:33 51°20.014 2°55.437 -999 -999 -999 -999
2007-06-15 08:52:33 51°19.985 2°55.367 -999 -999 -999 -999
2007-06-15 08:53:33 51°19.96 2°55.295 -999 -999 -999 -999
2007-06-15 08:54:33 51°19.944 2°55.22 -999 -999 -999 -999
2007-06-15 08:55:33 51°19.942 2°55.149 -999 -999 -999 -999
2007-06-15 08:56:33 51°19.958 2°55.092 -999 -999 -999 -999
2007-06-15 08:57:33 51°19.998 2°55.024 -999 -999 -999 -999
2007-06-15 08:58:33 51°20.049 2°54.925 -999 -999 -999 -999
2007-06-15 08:59:33 51°20.103 2°54.812 -999 -999 -999 -999
2007-06-15 09:00:33 51°20.148 2°54.705 -999 -999 -999 -999
2007-06-15 09:01:33 51°20.159 2°54.652 -999 -999 -999 -999
2007-06-15 09:02:33 51°20.158 2°54.627 -999 -999 -999 -999
2007-06-15 09:03:33 51°20.155 2°54.613 -999 -999 -999 -999
2007-06-15 09:04:33 51°20.151 2°54.606 -999 -999 -999 -999
2007-06-15 09:05:33 51°20.156 2°54.594 -999 -999 -999 -999
2007-06-15 09:06:33 51°20.207 2°54.593 -999 -999 -999 -999
2007-06-15 09:07:33 51°20.223 2°54.723 -999 -999 -999 -999
2007-06-15 09:08:33 51°20.127 2°54.808 -999 -999 -999 -999
2007-06-15 09:09:33 51°20.018 2°54.707 -999 -999 -999 -999
2007-06-15 09:10:33 51°19.884 2°54.498 -999 -999 -999 -999
2007-06-15 09:11:33 51°19.748 2°54.25 -999 -999 -999 -999
2007-06-15 09:12:33 51°19.614 2°53.997 -999 -999 -999 -999
2007-06-15 09:13:33 51°19.48 2°53.744 -999 -999 -999 -999
2007-06-15 09:14:33 51°19.346 2°53.492 -999 -999 -999 -999
2007-06-15 09:15:33 51°19.211 2°53.24 -999 -999 -999 -999
2007-06-15 09:16:33 51°19.077 2°52.988 -999 -999 -999 -999
2007-06-15 09:17:33 51°18.954 2°52.724 -999 -999 -999 -999
2007-06-15 09:18:33 51°18.928 2°52.412 -999 -999 -999 -999
2007-06-15 09:19:33 51°18.962 2°52.104 -999 -999 -999 -999
2007-06-15 09:20:33 51°18.976 2°51.789 -999 -999 -999 -999
2007-06-15 09:21:33 51°18.982 2°51.553 -999 -999 -999 -999
2007-06-15 09:22:33 51°19.017 2°51.476 -999 -999 -999 -999
2007-06-15 09:23:33 51°19.05 2°51.506 -999 -999 -999 -999
2007-06-15 09:24:33 51°19.021 2°51.579 -999 -999 -999 -999
2007-06-15 09:25:33 51°18.959 2°51.611 -999 -999 -999 -999
2007-06-15 09:26:33 51°18.904 2°51.621 -999 -999 -999 -999
2007-06-15 09:27:33 51°18.855 2°51.623 -999 -999 -999 -999
2007-06-15 09:28:33 51°18.809 2°51.622 -999 -999 -999 -999
2007-06-15 09:29:33 51°18.762 2°51.625 -999 -999 -999 -999
2007-06-15 09:30:34 51°18.709 2°51.62 -999 -999 -999 -999
2007-06-15 09:31:34 51°18.662 2°51.593 -999 -999 -999 -999
2007-06-15 09:32:34 51°18.628 2°51.543 -999 -999 -999 -999
2007-06-15 09:33:34 51°18.599 2°51.475 -999 -999 -999 -999
2007-06-15 09:34:36 51°18.56 2°51.405 -999 -999 -999 -999
2007-06-15 09:35:36 51°18.519 2°51.344 -999 -999 -999 -999
2007-06-15 09:36:36 51°18.48 2°51.285 -999 -999 -999 -999
2007-06-15 09:37:36 51°18.448 2°51.22 -999 -999 -999 -999
2007-06-15 09:38:37 51°18.419 2°51.15 -999 -999 -999 -999
2007-06-15 09:39:36 51°18.396 2°51.078 -999 -999 -999 -999
2007-06-15 09:40:37 51°18.379 2°51.001 -999 -999 -999 -999
2007-06-15 09:41:36 51°18.365 2°50.928 -999 -999 -999 -999
2007-06-15 09:42:37 51°18.343 2°50.856 -999 -999 -999 -999
2007-06-15 09:43:36 51°18.315 2°50.79 -999 -999 -999 -999
2007-06-15 09:44:37 51°18.281 2°50.724 -999 -999 -999 -999
2007-06-15 09:45:37 51°18.246 2°50.66 -999 -999 -999 -999
2007-06-15 09:46:37 51°18.216 2°50.591 -999 -999 -999 -999
2007-06-15 09:47:37 51°18.196 2°50.516 -999 -999 -999 -999
2007-06-15 09:48:36 51°18.182 2°50.44 -999 -999 -999 -999
2007-06-15 09:49:37 51°18.165 2°50.364 -999 -999 -999 -999
2007-06-15 09:50:36 51°18.147 2°50.292 -999 -999 -999 -999
2007-06-15 09:51:37 51°18.124 2°50.219 -999 -999 -999 -999
2007-06-15 09:52:36 51°18.114 2°50.148 -999 -999 -999 -999
2007-06-15 09:53:36 51°18.13 2°50.079 -999 -999 -999 -999
2007-06-15 09:54:37 51°18.154 2°49.996 -999 -999 -999 -999
2007-06-15 09:55:36 51°18.167 2°49.908 -999 -999 -999 -999
2007-06-15 09:56:37 51°18.185 2°49.82 -999 -999 -999 -999
2007-06-15 09:57:36 51°18.222 2°49.754 -999 -999 -999 -999
2007-06-15 09:58:37 51°18.27 2°49.702 -999 -999 -999 -999
2007-06-15 09:59:36 51°18.314 2°49.657 -999 -999 -999 -999
2007-06-15 10:00:37 51°18.365 2°49.659 -999 -999 -999 -999
2007-06-15 10:01:36 51°18.385 2°49.719 -999 -999 -999 -999
2007-06-15 10:02:37 51°18.384 2°49.774 -999 -999 -999 -999
2007-06-15 10:03:37 51°18.38 2°49.82 -999 -999 -999 -999
2007-06-15 10:04:37 51°18.375 2°49.861 -999 -999 -999 -999
2007-06-15 10:05:37 51°18.367 2°49.908 -999 -999 -999 -999
2007-06-15 10:06:36 51°18.345 2°49.984 -999 -999 -999 -999
2007-06-15 10:07:37 51°18.309 2°50.073 -999 -999 -999 -999
2007-06-15 10:08:36 51°18.273 2°50.144 -999 -999 -999 -999
2007-06-15 10:09:37 51°18.236 2°50.198 -999 -999 -999 -999
2007-06-15 10:10:37 51°18.202 2°50.244 -999 -999 -999 -999
2007-06-15 10:11:36 51°18.171 2°50.296 -999 -999 -999 -999
2007-06-15 10:12:37 51°18.152 2°50.374 -999 -999 -999 -999
2007-06-15 10:13:36 51°18.152 2°50.46 -999 -999 -999 -999
2007-06-15 10:14:37 51°18.156 2°50.555 -999 -999 -999 -999
2007-06-15 10:15:36 51°18.168 2°50.636 -999 -999 -999 -999
2007-06-15 10:16:37 51°18.192 2°50.705 -999 -999 -999 -999
2007-06-15 10:17:36 51°18.212 2°50.776 -999 -999 -999 -999
2007-06-15 10:18:37 51°18.233 2°50.853 -999 -999 -999 -999
2007-06-15 10:19:37 51°18.259 2°50.917 -999 -999 -999 -999
2007-06-15 10:20:37 51°18.291 2°50.98 -999 -999 -999 -999
2007-06-15 10:21:37 51°18.325 2°51.049 -999 -999 -999 -999
2007-06-15 10:22:37 51°18.357 2°51.123 -999 -999 -999 -999
2007-06-15 10:23:37 51°18.393 2°51.195 -999 -999 -999 -999
2007-06-15 10:24:36 51°18.429 2°51.26 -999 -999 -999 -999
2007-06-15 10:25:37 51°18.469 2°51.326 -999 -999 -999 -999
2007-06-15 10:26:37 51°18.506 2°51.399 -999 -999 -999 -999
2007-06-15 10:27:37 51°18.537 2°51.482 -999 -999 -999 -999
2007-06-15 10:28:37 51°18.56 2°51.567 -999 -999 -999 -999
2007-06-15 10:29:36 51°18.582 2°51.647 -999 -999 -999 -999
2007-06-15 10:30:37 51°18.608 2°51.72 -999 -999 -999 -999
2007-06-15 10:31:36 51°18.639 2°51.778 -999 -999 -999 -999
2007-06-15 10:32:37 51°18.676 2°51.823 -999 -999 -999 -999
2007-06-15 10:33:36 51°18.708 2°51.873 -999 -999 -999 -999
2007-06-15 10:34:37 51°18.744 2°51.936 -999 -999 -999 -999
2007-06-15 10:35:36 51°18.784 2°51.995 -999 -999 -999 -999
2007-06-15 10:36:37 51°18.829 2°52.049 -999 -999 -999 -999
2007-06-15 10:37:37 51°18.876 2°52.1 -999 -999 -999 -999
2007-06-15 10:38:37 51°18.925 2°52.147 -999 -999 -999 -999
2007-06-15 10:39:37 51°18.973 2°52.201 -999 -999 -999 -999
2007-06-15 10:40:37 51°19.015 2°52.271 -999 -999 -999 -999
2007-06-15 10:41:37 51°19.046 2°52.362 -999 -999 -999 -999
2007-06-15 10:42:37 51°19.058 2°52.454 -999 -999 -999 -999
2007-06-15 10:43:37 51°19.058 2°52.535 -999 -999 -999 -999
2007-06-15 10:44:37 51°19.05 2°52.605 -999 -999 -999 -999
2007-06-15 10:45:37 51°19.037 2°52.664 -999 -999 -999 -999
2007-06-15 10:46:37 51°19.027 2°52.715 -999 -999 -999 -999
2007-06-15 10:47:36 51°19.021 2°52.76 -999 -999 -999 -999
2007-06-15 10:48:37 51°18.985 2°52.799 -999 -999 -999 -999
2007-06-15 10:49:36 51°18.846 2°52.804 -999 -999 -999 -999
2007-06-15 10:50:37 51°18.639 2°52.786 -999 -999 -999 -999
2007-06-15 10:51:36 51°18.437 2°52.759 -999 -999 -999 -999
2007-06-15 10:52:37 51°18.232 2°52.709 -999 -999 -999 -999
2007-06-15 10:53:37 51°18.032 2°52.659 -999 -999 -999 -999
2007-06-15 10:54:37 51°17.83 2°52.612 -999 -999 -999 -999
2007-06-15 10:55:37 51°17.633 2°52.562 -999 -999 -999 -999
2007-06-15 10:56:37 51°17.435 2°52.512 -999 -999 -999 -999
2007-06-15 10:57:37 51°17.237 2°52.552 -999 -999 -999 -999
2007-06-15 10:58:37 51°17.05 2°52.717 -999 -999 -999 -999
2007-06-15 10:59:37 51°16.916 2°52.994 -999 -999 -999 -999
2007-06-15 11:00:37 51°16.892 2°53.363 -999 -999 -999 -999
2007-06-15 11:01:37 51°16.944 2°53.711 -999 -999 -999 -999
2007-06-15 11:02:37 51°17.007 2°54.006 -999 -999 -999 -999
2007-06-15 11:03:37 51°17.061 2°54.177 -999 -999 -999 -999
2007-06-15 11:04:37 51°17.088 2°54.302 -999 -999 -999 -999
2007-06-15 11:05:36 51°17.105 2°54.4 -999 -999 -999 -999
2007-06-15 11:06:37 51°17.122 2°54.487 -999 -999 -999 -999
2007-06-15 11:07:36 51°17.143 2°54.564 -999 -999 -999 -999
2007-06-15 11:08:37 51°17.166 2°54.641 -999 -999 -999 -999
2007-06-15 11:09:36 51°17.192 2°54.711 -999 -999 -999 -999
2007-06-15 11:10:37 51°17.219 2°54.782 -999 -999 -999 -999
2007-06-15 11:11:37 51°17.247 2°54.852 -999 -999 -999 -999
2007-06-15 11:12:37 51°17.275 2°54.922 -999 -999 -999 -999
2007-06-15 11:13:37 51°17.303 2°54.993 -999 -999 -999 -999
2007-06-15 11:14:37 51°17.33 2°55.061 -999 -999 -999 -999
2007-06-15 11:15:37 51°17.358 2°55.129 -999 -999 -999 -999
2007-06-15 11:16:37 51°17.387 2°55.196 -999 -999 -999 -999
2007-06-15 11:17:37 51°17.416 2°55.264 -999 -999 -999 -999
2007-06-15 11:18:37 51°17.446 2°55.331 -999 -999 -999 -999
2007-06-15 11:19:37 51°17.478 2°55.398 -999 -999 -999 -999
2007-06-15 11:20:37 51°17.51 2°55.466 -999 -999 -999 -999
2007-06-15 11:21:37 51°17.545 2°55.533 -999 -999 -999 -999
2007-06-15 11:22:37 51°17.581 2°55.596 -999 -999 -999 -999
2007-06-15 11:23:36 51°17.619 2°55.655 -999 -999 -999 -999
2007-06-15 11:24:37 51°17.658 2°55.714 -999 -999 -999 -999
2007-06-15 11:25:36 51°17.696 2°55.77 -999 -999 -999 -999
2007-06-15 11:26:37 51°17.732 2°55.835 -999 -999 -999 -999
2007-06-15 11:27:36 51°17.761 2°55.904 -999 -999 -999 -999
2007-06-15 11:28:37 51°17.786 2°55.979 -999 -999 -999 -999
2007-06-15 11:29:37 51°17.808 2°56.056 -999 -999 -999 -999
2007-06-15 11:30:37 51°17.823 2°56.132 -999 -999 -999 -999
2007-06-15 11:31:37 51°17.837 2°56.207 -999 -999 -999 -999
2007-06-15 11:32:37 51°17.847 2°56.282 -999 -999 -999 -999
2007-06-15 11:33:37 51°17.854 2°56.354 -999 -999 -999 -999
2007-06-15 11:34:37 51°17.862 2°56.429 -999 -999 -999 -999
2007-06-15 11:35:37 51°17.872 2°56.512 -999 -999 -999 -999
2007-06-15 11:36:37 51°17.878 2°56.6 -999 -999 -999 -999
2007-06-15 11:37:37 51°17.874 2°56.682 -999 -999 -999 -999
2007-06-15 11:38:37 51°17.846 2°56.724 -999 -999 -999 -999
2007-06-15 11:39:36 51°17.837 2°56.756 -999 -999 -999 -999
2007-06-15 11:40:37 51°17.838 2°56.798 -999 -999 -999 -999
2007-06-15 11:41:36 51°17.84 2°56.845 -999 -999 -999 -999
2007-06-15 11:42:37 51°17.817 2°56.855 -999 -999 -999 -999
2007-06-15 11:43:37 51°17.807 2°56.77 -999 -999 -999 -999
2007-06-15 11:44:37 51°17.817 2°56.675 -999 -999 -999 -999
2007-06-15 11:45:37 51°17.837 2°56.607 -999 -999 -999 -999
2007-06-15 11:46:37 51°17.862 2°56.554 -999 -999 -999 -999
2007-06-15 11:47:37 51°17.855 2°56.504 -999 -999 -999 -999
2007-06-15 11:48:37 51°17.828 2°56.437 -999 -999 -999 -999
2007-06-15 11:49:37 51°17.796 2°56.366 -999 -999 -999 -999
2007-06-15 11:50:37 51°17.759 2°56.3 -999 -999 -999 -999
2007-06-15 11:51:37 51°17.725 2°56.232 -999 -999 -999 -999
2007-06-15 11:52:37 51°17.698 2°56.155 -999 -999 -999 -999
2007-06-15 11:53:37 51°17.668 2°56.081 -999 -999 -999 -999
2007-06-15 11:54:37 51°17.645 2°55.998 -999 -999 -999 -999
2007-06-15 11:55:37 51°17.617 2°55.92 -999 -999 -999 -999
2007-06-15 11:56:37 51°17.592 2°55.838 -999 -999 -999 -999
2007-06-15 11:57:37 51°17.57 2°55.752 -999 -999 -999 -999
2007-06-15 11:58:37 51°17.55 2°55.669 -999 -999 -999 -999
2007-06-15 11:59:37 51°17.529 2°55.595 -999 -999 -999 -999
2007-06-15 12:00:37 51°17.499 2°55.533 -999 -999 -999 -999
2007-06-15 12:01:37 51°17.475 2°55.466 -999 -999 -999 -999
2007-06-15 12:02:37 51°17.449 2°55.397 -999 -999 -999 -999
2007-06-15 12:03:37 51°17.423 2°55.329 -999 -999 -999 -999
2007-06-15 12:04:37 51°17.399 2°55.26 -999 -999 -999 -999
2007-06-15 12:05:37 51°17.376 2°55.186 -999 -999 -999 -999
2007-06-15 12:06:37 51°17.354 2°55.11 -999 -999 -999 -999
2007-06-15 12:07:37 51°17.329 2°55.037 -999 -999 -999 -999
2007-06-15 12:08:37 51°17.307 2°54.961 -999 -999 -999 -999
2007-06-15 12:09:37 51°17.286 2°54.883 -999 -999 -999 -999
2007-06-15 12:10:37 51°17.257 2°54.814 -999 -999 -999 -999
2007-06-15 12:11:37 51°17.232 2°54.741 -999 -999 -999 -999
2007-06-15 12:12:37 51°17.212 2°54.664 -999 -999 -999 -999
2007-06-15 12:13:37 51°17.187 2°54.592 -999 -999 -999 -999
2007-06-15 12:14:37 51°17.164 2°54.516 -999 -999 -999 -999
2007-06-15 12:15:37 51°17.138 2°54.444 -999 -999 -999 -999
2007-06-15 12:16:37 51°17.109 2°54.376 -999 -999 -999 -999
2007-06-15 12:17:37 51°17.08 2°54.308 -999 -999 -999 -999
2007-06-15 12:18:37 51°17.052 2°54.238 -999 -999 -999 -999
2007-06-15 12:19:37 51°17.025 2°54.164 -999 -999 -999 -999
2007-06-15 12:20:37 51°17.015 2°54.082 -999 -999 -999 -999
2007-06-15 12:21:37 51°17.044 2°54.033 -999 -999 -999 -999
2007-06-15 12:22:37 51°17.097 2°54.029 -999 -999 -999 -999
2007-06-15 12:23:37 51°17.151 2°54.061 -999 -999 -999 -999
2007-06-15 12:24:37 51°17.197 2°54.098 -999 -999 -999 -999
2007-06-15 12:25:37 51°17.254 2°54.15 -999 -999 -999 -999
2007-06-15 12:26:37 51°17.3 2°54.246 -999 -999 -999 -999
2007-06-15 12:27:37 51°17.332 2°54.328 -999 -999 -999 -999
2007-06-15 12:28:37 51°17.36 2°54.401 -999 -999 -999 -999
2007-06-15 12:29:37 51°17.387 2°54.464 -999 -999 -999 -999
2007-06-15 12:30:37 51°17.414 2°54.546 -999 -999 -999 -999
2007-06-15 12:31:37 51°17.419 2°54.655 -999 -999 -999 -999
2007-06-15 12:32:37 51°17.406 2°54.762 -999 -999 -999 -999
2007-06-15 12:33:37 51°17.403 2°54.873 -999 -999 -999 -999
2007-06-15 12:34:37 51°17.418 2°54.982 -999 -999 -999 -999
2007-06-15 12:35:37 51°17.443 2°55.083 -999 -999 -999 -999
2007-06-15 12:36:37 51°17.47 2°55.173 -999 -999 -999 -999
2007-06-15 12:37:37 51°17.495 2°55.257 -999 -999 -999 -999
2007-06-15 12:38:37 51°17.519 2°55.336 -999 -999 -999 -999
2007-06-15 12:39:37 51°17.543 2°55.413 -999 -999 -999 -999
2007-06-15 12:40:37 51°17.566 2°55.488 -999 -999 -999 -999
2007-06-15 12:41:37 51°17.591 2°55.563 -999 -999 -999 -999
2007-06-15 12:42:37 51°17.616 2°55.636 -999 -999 -999 -999
2007-06-15 12:43:37 51°17.641 2°55.71 -999 -999 -999 -999
2007-06-15 12:44:37 51°17.665 2°55.785 -999 -999 -999 -999
2007-06-15 12:45:37 51°17.69 2°55.862 -999 -999 -999 -999
2007-06-15 12:46:37 51°17.717 2°55.936 -999 -999 -999 -999
2007-06-15 12:47:37 51°17.746 2°56.008 -999 -999 -999 -999
2007-06-15 12:48:37 51°17.775 2°56.078 -999 -999 -999 -999
2007-06-15 12:49:37 51°17.805 2°56.147 -999 -999 -999 -999
2007-06-15 12:50:37 51°17.835 2°56.216 -999 -999 -999 -999
2007-06-15 12:51:37 51°17.864 2°56.285 -999 -999 -999 -999
2007-06-15 12:52:37 51°17.893 2°56.353 -999 -999 -999 -999
2007-06-15 12:53:37 51°17.92 2°56.421 -999 -999 -999 -999
2007-06-15 12:54:37 51°17.939 2°56.496 -999 -999 -999 -999
2007-06-15 12:55:37 51°17.945 2°56.575 -999 -999 -999 -999
2007-06-15 12:56:37 51°17.939 2°56.653 -999 -999 -999 -999
2007-06-15 12:57:37 51°17.924 2°56.724 -999 -999 -999 -999
2007-06-15 12:58:37 51°17.903 2°56.799 -999 -999 -999 -999
2007-06-15 12:59:37 51°17.886 2°56.889 -999 -999 -999 -999
2007-06-15 13:00:37 51°17.878 2°56.982 -999 -999 -999 -999
2007-06-15 13:01:37 51°17.873 2°57.068 -999 -999 -999 -999
2007-06-15 13:02:37 51°17.866 2°57.149 -999 -999 -999 -999
2007-06-15 13:03:37 51°17.86 2°57.226 -999 -999 -999 -999
2007-06-15 13:04:37 51°17.854 2°57.294 -999 -999 -999 -999
2007-06-15 13:05:36 51°17.807 2°57.303 -999 -999 -999 -999
2007-06-15 13:06:37 51°17.77 2°57.223 -999 -999 -999 -999
2007-06-15 13:07:36 51°17.772 2°57.188 -999 -999 -999 -999
2007-06-15 13:08:36 51°17.782 2°57.175 -999 -999 -999 -999
2007-06-15 13:09:36 51°17.797 2°57.175 -999 -999 -999 -999
2007-06-15 13:10:36 51°17.813 2°57.185 -999 -999 -999 -999
2007-06-15 13:11:37 51°17.824 2°57.17 -999 -999 -999 -999
2007-06-15 13:12:36 51°17.767 2°57.072 -999 -999 -999 -999
2007-06-15 13:13:36 51°17.628 2°56.904 -999 -999 -999 -999
2007-06-15 13:14:36 51°17.467 2°56.759 -999 -999 -999 -999
2007-06-15 13:15:36 51°17.29 2°56.65 -999 -999 -999 -999
2007-06-15 13:16:36 51°17.101 2°56.584 -999 -999 -999 -999
2007-06-15 13:17:36 51°16.908 2°56.554 -999 -999 -999 -999
2007-06-15 13:18:36 51°16.745 2°56.418 -999 -999 -999 -999
2007-06-15 13:19:37 51°16.606 2°56.214 -999 -999 -999 -999
2007-06-15 13:20:36 51°16.473 2°56.01 -999 -999 -999 -999
2007-06-15 13:21:37 51°16.332 2°55.802 -999 -999 -999 -999
2007-06-15 13:22:37 51°16.196 2°55.596 -999 -999 -999 -999
2007-06-15 13:23:36 51°16.062 2°55.393 -999 -999 -999 -999
2007-06-15 13:24:37 51°15.912 2°55.196 -999 -999 -999 -999
2007-06-15 13:25:36 51°15.756 2°55.029 -999 -999 -999 -999
2007-06-15 13:26:36 51°15.589 2°54.874 -999 -999 -999 -999
2007-06-15 13:27:37 51°15.414 2°54.722 -999 -999 -999 -999
2007-06-15 13:28:37 51°15.239 2°54.573 -999 -999 -999 -999
2007-06-15 13:29:37 51°15.061 2°54.435 -999 -999 -999 -999
2007-06-15 13:30:37 51°14.883 2°54.296 -999 -999 -999 -999
2007-06-15 13:31:36 51°14.71 2°54.165 -999 -999 -999 -999
2007-06-15 13:32:37 51°14.529 2°54.023 -999 -999 -999 -999
2007-06-15 13:33:37 51°14.368 2°53.849 -999 -999 -999 -999
2007-06-15 13:34:36 51°14.213 2°53.665 -999 -999 -999 -999
2007-06-15 13:35:37 51°14.06 2°53.463 -999 -999 -999 -999
2007-06-15 13:36:36 51°13.915 2°53.266 -999 -999 -999 -999
2007-06-15 13:37:36 51°13.768 2°53.064 -999 -999 -999 -999
2007-06-15 13:38:37 51°13.635 2°52.832 -999 -999 -999 -999
2007-06-15 13:39:37 51°13.511 2°52.596 -999 -999 -999 -999
2007-06-15 13:40:37 51°13.407 2°52.351 -999 -999 -999 -999
2007-06-15 13:41:36 51°13.346 2°52.203 -999 -999 -999 -999
2007-06-15 13:42:36 51°13.321 2°52.122 -999 -999 -999 -999
2007-06-15 13:43:36 51°13.31 2°52.07 -999 -999 -999 -999
2007-06-15 13:44:36 51°13.285 2°52.009 -999 -999 -999 -999
2007-06-15 13:45:36 51°13.253 2°51.934 -999 -999 -999 -999
2007-06-15 13:46:36 51°13.229 2°51.857 -999 -999 -999 -999
2007-06-15 13:47:36 51°13.198 2°51.799 -999 -999 -999 -999
2007-06-15 13:48:36 51°13.169 2°51.743 -999 -999 -999 -999
2007-06-15 13:49:36 51°13.147 2°51.682 -999 -999 -999 -999
2007-06-15 13:50:37 51°13.124 2°51.62 -999 -999 -999 -999
2007-06-15 13:51:37 51°13.096 2°51.565 -999 -999 -999 -999
2007-06-15 13:52:37 51°13.062 2°51.516 -999 -999 -999 -999
2007-06-15 13:53:37 51°13.034 2°51.46 -999 -999 -999 -999
2007-06-15 13:54:37 51°13.017 2°51.396 -999 -999 -999 -999
2007-06-15 13:55:37 51°12.993 2°51.336 -999 -999 -999 -999
2007-06-15 13:56:37 51°12.969 2°51.275 -999 -999 -999 -999
2007-06-15 13:57:37 51°12.942 2°51.213 -999 -999 -999 -999
2007-06-15 13:58:37 51°12.906 2°51.154 -999 -999 -999 -999
2007-06-15 13:59:37 51°12.863 2°51.098 -999 -999 -999 -999
2007-06-15 14:00:37 51°12.831 2°51.026 -999 -999 -999 -999
2007-06-15 14:01:37 51°12.798 2°50.953 -999 -999 -999 -999
2007-06-15 14:02:37 51°12.775 2°50.872 -999 -999 -999 -999
2007-06-15 14:03:37 51°12.747 2°50.796 -999 -999 -999 -999
2007-06-15 14:04:37 51°12.718 2°50.719 -999 -999 -999 -999
2007-06-15 14:05:37 51°12.691 2°50.642 -999 -999 -999 -999
2007-06-15 14:06:37 51°12.658 2°50.569 -999 -999 -999 -999
2007-06-15 14:07:37 51°12.629 2°50.492 -999 -999 -999 -999
2007-06-15 14:08:37 51°12.6 2°50.414 -999 -999 -999 -999
2007-06-15 14:09:37 51°12.568 2°50.34 -999 -999 -999 -999
2007-06-15 14:10:37 51°12.537 2°50.265 -999 -999 -999 -999
2007-06-15 14:11:37 51°12.504 2°50.193 -999 -999 -999 -999
2007-06-15 14:12:37 51°12.466 2°50.126 -999 -999 -999 -999
2007-06-15 14:13:37 51°12.43 2°50.058 -999 -999 -999 -999
2007-06-15 14:14:37 51°12.426 2°49.975 -999 -999 -999 -999
2007-06-15 14:15:37 51°12.441 2°49.893 -999 -999 -999 -999
2007-06-15 14:16:37 51°12.497 2°49.862 -999 -999 -999 -999
2007-06-15 14:17:37 51°12.545 2°49.896 -999 -999 -999 -999
2007-06-15 14:18:37 51°12.581 2°49.964 -999 -999 -999 -999
2007-06-15 14:19:37 51°12.654 2°50.053 -999 -999 -999 -999
2007-06-15 14:20:37 51°12.703 2°50.09 -999 -999 -999 -999
2007-06-15 14:21:37 51°12.74 2°50.117 -999 -999 -999 -999
2007-06-15 14:22:37 51°12.771 2°50.144 -999 -999 -999 -999
2007-06-15 14:23:37 51°12.798 2°50.169 -999 -999 -999 -999
2007-06-15 14:24:37 51°12.853 2°50.199 -999 -999 -999 -999
2007-06-15 14:25:37 51°12.967 2°50.319 -999 -999 -999 -999
2007-06-15 14:26:37 51°13.003 2°50.448 -999 -999 -999 -999
2007-06-15 14:27:37 51°13.007 2°50.543 -999 -999 -999 -999
2007-06-15 14:28:37 51°13.001 2°50.615 -999 -999 -999 -999
2007-06-15 14:29:37 51°12.994 2°50.672 -999 -999 -999 -999
2007-06-15 14:30:37 51°12.989 2°50.721 -999 -999 -999 -999
2007-06-15 14:31:37 51°12.987 2°50.774 -999 -999 -999 -999
2007-06-15 14:32:37 51°13.026 2°50.881 -999 -999 -999 -999
2007-06-15 14:33:37 51°13.133 2°51.099 -999 -999 -999 -999
2007-06-15 14:34:37 51°13.268 2°51.396 -999 -999 -999 -999
2007-06-15 14:35:37 51°13.404 2°51.695 -999 -999 -999 -999
2007-06-15 14:36:37 51°13.542 2°51.993 -999 -999 -999 -999
2007-06-15 14:37:37 51°13.681 2°52.292 -999 -999 -999 -999
2007-06-15 14:38:37 51°13.82 2°52.593 -999 -999 -999 -999
2007-06-15 14:39:37 51°13.959 2°52.889 -999 -999 -999 -999
2007-06-15 14:40:37 51°14.098 2°53.189 -999 -999 -999 -999
2007-06-15 14:41:37 51°14.217 2°53.505 -999 -999 -999 -999
2007-06-15 14:42:36 51°14.312 2°53.833 -999 -999 -999 -999
2007-06-15 14:43:37 51°14.389 2°54.189 -999 -999 -999 -999
2007-06-15 14:44:36 51°14.421 2°54.551 -999 -999 -999 -999
2007-06-15 14:45:36 51°14.395 2°54.91 -999 -999 -999 -999
2007-06-15 14:46:36 51°14.293 2°55.201 -999 -999 -999 -999
2007-06-15 14:47:36 51°14.18 2°55.365 -999 -999 -999 -999
2007-06-15 14:48:37 51°14.09 2°55.447 -999 -999 -999 -999
2007-06-15 14:49:37 51°13.989 2°55.519 -999 -999 -999 -999
2007-06-15 14:50:37 51°13.872 2°55.602 -999 -999 -999 -999
2007-06-15 14:51:36 51°13.77 2°55.699 -999 -999 -999 -999
2007-06-15 14:52:36 51°13.686 2°55.837 -999 -999 -999 -999
2007-06-15 14:53:36 51°13.638 2°55.956 -999 -999 -999 -999
2007-06-15 14:54:36 51°13.61 2°56.046 -999 -999 -999 -999
2007-06-15 14:55:36 51°13.599 2°56.091 -999 -999 -999 -999
2007-06-15 14:56:36 51°13.597 2°56.095 -999 -999 -999 -999